Location: M?digepalle
(16.1753°N, 80.3496°E)
Time: 08:22:58
(UTC+00:00)

Cosmos 1023 Rocket - Pass Details

Date: 29 October 2020
Orbit: 736 x 773 km, 74.1° (Epoch: 27 November)

Event Time Altitude Azimuth Distance (km) Brightness Sun altitude
Rises 23:27:51 0° 196° (SSW) 3,172 7.6 -16.6°
Reaches altitude 10° 23:30:13 10° 198° (SSW) 2,246 6.8 -16.1°
Maximum altitude 23:35:17 76° 283° (WNW) 762 4.3 -14.9°
Drops below altitude 10° 23:40:20 10° 9° (N) 2,236 6.9 -13.7°
Sets 23:42:41 0° 11° (N) 3,158 7.7 -13.1°
